| time (UTC) | temp C | wind direction | speed KPH | gust KPH | rain 1hr cm | rain 24hr cm | rain mn cm | humidity % | barometer mb |
| 20260509141752 | 9 | 121 | 1.6 | 3.2 | 0.00 | 0.00 | 0.00 | 96 | 1020.0 |
| 20260509141248 | 8 | 121 | 1.6 | 3.2 | 0.00 | 0.00 | 0.00 | 96 | 1020.1 |
| 20260509140748 | 8 | 121 | 0.0 | 3.2 | 0.00 | 0.00 | 0.00 | 95 | 1020.1 |
| 20260509140248 | 8 | 121 | 0.0 | 0.0 | 0.00 | 0.00 | 0.00 | 95 | 1019.9 |
| 20260509135741 | 7 | 121 | 0.0 | 0.0 | 0.00 | 0.00 | 0.00 | 95 | 1020.0 |
| 20260509135240 | 7 | 121 | 0.0 | 0.0 | 0.00 | 0.00 | 0.00 | 95 | 1019.9 |
| 20260509134737 | 7 | 121 | 0.0 | 0.0 | 0.00 | 0.00 | 0.00 | 95 | 1019.9 |
| 20260509134210 | 7 | 121 | 0.0 | 1.6 | 0.00 | 0.00 | 0.00 | 95 | 1020.0 |
| 20260509133707 | 6 | 120 | 1.6 | 3.2 | 0.00 | 0.00 | 0.00 | 94 | 1020.0 |
| 20260509133146 | 6 | 120 | 1.6 | 3.2 | 0.00 | 0.00 | 0.00 | 94 | 1020.0 |
| 20260509133130 | 6 | 120 | 1.6 | 3.2 | 0.00 | 0.00 | 0.00 | 94 | 1020.0 |
| 20260509132144 | 7 | 120 | 1.6 | 4.8 | 0.00 | 0.00 | 0.00 | 95 | 1020.0 |
| 20260509131632 | 6 | 120 | 3.2 | 4.8 | 0.00 | 0.00 | 0.00 | 95 | 1019.9 |
| 20260509131124 | 6 | 194 | 1.6 | 3.2 | 0.00 | 0.00 | 0.00 | 94 | 1019.9 |
| 20260509130823 | 6 | 194 | 1.6 | 3.2 | 0.00 | 0.00 | 0.00 | 94 | 1020.0 |
| 20260509130101 | 6 | 194 | 1.6 | 3.2 | 0.00 | 0.00 | 0.00 | 94 | 1020.2 |
| 20260509125559 | 6 | 309 | 0.0 | 3.2 | 0.00 | 0.00 | 0.00 | 94 | 1020.2 |
| 20260509125542 | 6 | 125 | 0.0 | 0.0 | 0.00 | 0.00 | 0.00 | 94 | 1020.3 |
| 20260509124558 | 6 | 125 | 0.0 | 3.2 | 0.00 | 0.00 | 0.00 | 94 | 1020.3 |
| 20260509124308 | 6 | 125 | 0.0 | 3.2 | 0.00 | 0.00 | 0.00 | 94 | 1020.4 |
| 20260509123542 | 6 | 125 | 0.0 | 1.6 | 0.00 | 0.00 | 0.00 | 94 | 1020.4 |
| 20260509123044 | 6 | 125 | 1.6 | 3.2 | 0.00 | 0.00 | 0.00 | 94 | 1020.4 |
| 20260509122539 | 6 | 125 | 1.6 | 3.2 | 0.00 | 0.00 | 0.00 | 94 | 1020.2 |
| 20260509122029 | 6 | 125 | 1.6 | 3.2 | 0.00 | 0.00 | 0.00 | 94 | 1020.3 |
| 20260509121525 | 7 | 125 | 1.6 | 3.2 | 0.00 | 0.00 | 0.00 | 94 | 1020.3 |
| 20260509121025 | 7 | 125 | 1.6 | 3.2 | 0.00 | 0.00 | 0.00 | 94 | 1020.2 |
| 20260509120522 | 7 | 125 | 0.0 | 3.2 | 0.00 | 0.00 | 0.00 | 94 | 1020.1 |
| 20260509120015 | 7 | 125 | 0.0 | 1.6 | 0.00 | 0.00 | 0.00 | 94 | 1020.3 |
| 20260509115515 | 6 | 125 | 0.0 | 1.6 | 0.00 | 0.00 | 0.00 | 94 | 1020.4 |
| 20260509114953 | 6 | 125 | 0.0 | 1.6 | 0.00 | 0.00 | 0.00 | 94 | 1020.5 |
| 20260509114443 | 7 | 125 | 0.0 | 4.8 | 0.00 | 0.00 | 0.00 | 94 | 1020.4 |
| 20260509113944 | 7 | 125 | 0.0 | 4.8 | 0.00 | 0.00 | 0.00 | 94 | 1020.4 |
| 20260509113446 | 7 | 125 | 0.0 | 0.0 | 0.00 | 0.00 | 0.00 | 94 | 1020.3 |
| 20260509112924 | 7 | 125 | 0.0 | 0.0 | 0.00 | 0.00 | 0.00 | 94 | 1020.3 |
| 20260509112417 | 7 | 125 | 0.0 | 0.0 | 0.00 | 0.00 | 0.00 | 93 | 1020.3 |
| 20260509111844 | 7 | 125 | 0.0 | 0.0 | 0.00 | 0.00 | 0.00 | 93 | 1020.3 |
| 20260509111326 | 7 | 125 | 0.0 | 0.0 | 0.00 | 0.00 | 0.00 | 93 | 1020.3 |
| 20260509110823 | 7 | 125 | 0.0 | 0.0 | 0.00 | 0.00 | 0.00 | 92 | 1020.4 |
| 20260509110325 | 7 | 125 | 0.0 | 0.0 | 0.00 | 0.00 | 0.00 | 93 | 1020.4 |
| 20260509105758 | 7 | 125 | 0.0 | 0.0 | 0.00 | 0.00 | 0.00 | 93 | 1020.5 |
| 20260509105242 | 7 | 125 | 0.0 | 0.0 | 0.00 | 0.00 | 0.00 | 92 | 1020.6 |
| 20260509104730 | 7 | 125 | 0.0 | 0.0 | 0.00 | 0.00 | 0.00 | 92 | 1020.6 |
| 20260509104221 | 7 | 125 | 0.0 | 0.0 | 0.00 | 0.00 | 0.00 | 92 | 1020.6 |
| 20260509103711 | 7 | 125 | 0.0 | 0.0 | 0.00 | 0.00 | 0.00 | 92 | 1020.6 |
| 20260509103429 | 8 | 125 | 0.0 | 0.0 | 0.00 | 0.00 | 0.00 | 91 | 1020.7 |
| 20260509102652 | 8 | 125 | 0.0 | 0.0 | 0.00 | 0.00 | 0.00 | 91 | 1020.7 |
| 20260509102138 | 8 | 125 | 0.0 | 0.0 | 0.00 | 0.00 | 0.00 | 91 | 1020.6 |
| 20260509101630 | 8 | 125 | 0.0 | 0.0 | 0.00 | 0.00 | 0.00 | 93 | 1020.7 |
| 20260509101326 | 8 | 125 | 0.0 | 0.0 | 0.00 | 0.00 | 0.00 | 92 | 1020.8 |
| 20260509100553 | 8 | 125 | 0.0 | 0.0 | 0.00 | 0.00 | 0.00 | 93 | 1020.7 |
| 20260509100016 | 8 | 125 | 0.0 | 1.6 | 0.00 | 0.00 | 0.00 | 93 | 1020.8 |
| 20260509095505 | 8 | 125 | 1.6 | 3.2 | 0.00 | 0.00 | 0.00 | 93 | 1020.8 |
| 20260509095216 | 8 | 125 | 1.6 | 3.2 | 0.00 | 0.00 | 0.00 | 93 | 1021.0 |
| 20260509094657 | 8 | 125 | 1.6 | 3.2 | 0.00 | 0.00 | 0.00 | 93 | 1020.8 |
| 20260509093940 | 8 | 125 | 1.6 | 3.2 | 0.00 | 0.00 | 0.00 | 93 | 1020.8 |
| 20260509093644 | 8 | 125 | 0.0 | 3.2 | 0.00 | 0.00 | 0.00 | 92 | 1020.7 |
| 20260509092921 | 8 | 125 | 0.0 | 0.0 | 0.00 | 0.00 | 0.00 | 92 | 1020.8 |
| 20260509092417 | 8 | 125 | 0.0 | 0.0 | 0.00 | 0.00 | 0.00 | 92 | 1020.7 |
| 20260509091909 | 8 | 125 | 0.0 | 0.0 | 0.00 | 0.00 | 0.00 | 91 | 1020.9 |
| 20260509091412 | 8 | 125 | 0.0 | 1.6 | 0.00 | 0.00 | 0.00 | 91 | 1021.0 |
| 20260509090839 | 8 | 125 | 0.0 | 1.6 | 0.00 | 0.00 | 0.00 | 91 | 1021.0 |
| 20260509090337 | 9 | 125 | 0.0 | 1.6 | 0.00 | 0.00 | 0.00 | 90 | 1021.1 |
| 20260509085836 | 9 | 125 | 0.0 | 1.6 | 0.00 | 0.00 | 0.00 | 90 | 1021.1 |
| 20260509085336 | 9 | 125 | 0.0 | 1.6 | 0.00 | 0.00 | 0.00 | 89 | 1021.1 |
| 20260509085055 | 9 | 125 | 0.0 | 1.6 | 0.00 | 0.00 | 0.00 | 89 | 1021.2 |
| 20260509084333 | 9 | 125 | 0.0 | 1.6 | 0.00 | 0.00 | 0.00 | 90 | 1021.1 |
| 20260509083820 | 9 | 125 | 0.0 | 1.6 | 0.00 | 0.00 | 0.00 | 90 | 1021.2 |
| 20260509083316 | 9 | 125 | 0.0 | 0.0 | 0.00 | 0.00 | 0.00 | 90 | 1021.2 |
| 20260509083035 | 9 | 125 | 0.0 | 0.0 | 0.00 | 0.00 | 0.00 | 90 | 1021.2 |
| 20260509082531 | 10 | 125 | 0.0 | 0.0 | 0.00 | 0.00 | 0.00 | 90 | 1021.2 |
| 20260509081740 | 10 | 125 | 0.0 | 1.6 | 0.00 | 0.00 | 0.00 | 89 | 1021.2 |
| 20260509081504 | 10 | 125 | 0.0 | 1.6 | 0.00 | 0.00 | 0.00 | 90 | 1021.2 |
| 20260509080734 | 10 | 125 | 0.0 | 1.6 | 0.00 | 0.00 | 0.00 | 89 | 1021.3 |
| 20260509080234 | 10 | 125 | 1.6 | 3.2 | 0.00 | 0.00 | 0.00 | 89 | 1021.3 |
| 20260509075731 | 10 | 125 | 1.6 | 3.2 | 0.00 | 0.00 | 0.00 | 88 | 1021.2 |
| 20260509075229 | 10 | 125 | 1.6 | 3.2 | 0.00 | 0.00 | 0.00 | 88 | 1021.2 |
| 20260509074720 | 10 | 125 | 0.0 | 1.6 | 0.00 | 0.00 | 0.00 | 89 | 1021.1 |
| 20260509074440 | 10 | 125 | 0.0 | 0.0 | 0.00 | 0.00 | 0.00 | 88 | 1021.2 |
| 20260509073725 | 10 | 125 | 0.0 | 1.6 | 0.00 | 0.00 | 0.00 | 88 | 1021.2 |
| 20260509073217 | 10 | 125 | 1.6 | 3.2 | 0.00 | 0.00 | 0.00 | 88 | 1021.2 |
| 20260509072654 | 10 | 125 | 1.6 | 3.2 | 0.00 | 0.00 | 0.00 | 88 | 1021.2 |
| 20260509072148 | 10 | 125 | 1.6 | 3.2 | 0.00 | 0.00 | 0.00 | 88 | 1021.3 |
| 20260509071645 | 11 | 125 | 1.6 | 3.2 | 0.00 | 0.00 | 0.00 | 88 | 1021.5 |
| 20260509071148 | 11 | 125 | 1.6 | 3.2 | 0.00 | 0.00 | 0.00 | 87 | 1021.4 |
| 20260509070645 | 11 | 125 | 1.6 | 3.2 | 0.00 | 0.00 | 0.00 | 87 | 1021.4 |
| 20260509070146 | 11 | 125 | 1.6 | 3.2 | 0.00 | 0.00 | 0.00 | 86 | 1021.4 |
| 20260509065639 | 11 | 125 | 1.6 | 4.8 | 0.00 | 0.00 | 0.00 | 87 | 1021.5 |
| 20260509065138 | 11 | 125 | 1.6 | 4.8 | 0.00 | 0.00 | 0.00 | 87 | 1021.4 |
| 20260509064627 | 11 | 45 | 1.6 | 4.8 | 0.00 | 0.00 | 0.00 | 86 | 1021.4 |
| 20260509064112 | 11 | 332 | 1.6 | 3.2 | 0.00 | 0.00 | 0.00 | 87 | 1021.4 |
| 20260509063613 | 11 | 329 | 0.0 | 3.2 | 0.00 | 0.00 | 0.00 | 87 | 1021.4 |
| 20260509063059 | 11 | 329 | 0.0 | 3.2 | 0.00 | 0.00 | 0.00 | 87 | 1021.4 |
| 20260509062559 | 11 | 329 | 0.0 | 0.0 | 0.00 | 0.00 | 0.00 | 86 | 1021.4 |
| 20260509062024 | 11 | 329 | 0.0 | 0.0 | 0.00 | 0.00 | 0.00 | 85 | 1021.4 |
| 20260509061451 | 11 | 329 | 0.0 | 0.0 | 0.00 | 0.00 | 0.00 | 86 | 1021.4 |
| 20260509060937 | 11 | 329 | 0.0 | 0.0 | 0.00 | 0.00 | 0.00 | 85 | 1021.4 |
| 20260509060425 | 11 | 329 | 0.0 | 0.0 | 0.00 | 0.00 | 0.00 | 85 | 1021.4 |
| 20260509055846 | 12 | 329 | 0.0 | 0.0 | 0.00 | 0.00 | 0.00 | 85 | 1021.3 |
| 20260509055342 | 12 | 329 | 0.0 | 0.0 | 0.00 | 0.00 | 0.00 | 85 | 1021.3 |
| 20260509054825 | 12 | 329 | 0.0 | 0.0 | 0.00 | 0.00 | 0.00 | 85 | 1021.3 |
| 20260509054255 | 12 | 329 | 0.0 | 0.0 | 0.00 | 0.00 | 0.00 | 85 | 1021.4 |
| 20260509053740 | 12 | 329 | 0.0 | 0.0 | 0.00 | 0.00 | 0.00 | 84 | 1021.2 |
| 20260509053229 | 12 | 329 | 0.0 | 0.0 | 0.00 | 0.00 | 0.00 | 84 | 1021.3 |
| 20260509052726 | 12 | 329 | 0.0 | 0.0 | 0.00 | 0.00 | 0.00 | 85 | 1021.4 |
| 20260509052225 | 12 | 329 | 0.0 | 0.0 | 0.00 | 0.00 | 0.00 | 85 | 1021.3 |
| 20260509051724 | 12 | 329 | 0.0 | 0.0 | 0.00 | 0.00 | 0.00 | 86 | 1021.3 |
| 20260509051152 | 12 | 329 | 0.0 | 0.0 | 0.00 | 0.00 | 0.00 | 85 | 1021.2 |
| 20260509050638 | 13 | 329 | 0.0 | 0.0 | 0.00 | 0.00 | 0.00 | 81 | 1021.2 |
| 20260509050128 | 13 | 329 | 0.0 | 0.0 | 0.00 | 0.00 | 0.00 | 80 | 1021.2 |
| 20260509045604 | 13 | 329 | 0.0 | 0.0 | 0.00 | 0.00 | 0.00 | 81 | 1021.1 |
| 20260509045535 | 13 | 329 | 0.0 | 0.0 | 0.00 | 0.00 | 0.00 | 81 | 1021.0 |
| 20260509044811 | 13 | 329 | 0.0 | 0.0 | 0.00 | 0.00 | 0.00 | 81 | 1021.0 |
| 20260509044045 | 13 | 329 | 0.0 | 0.0 | 0.00 | 0.00 | 0.00 | 81 | 1021.0 |
| 20260509043523 | 13 | 329 | 0.0 | 1.6 | 0.00 | 0.00 | 0.00 | 80 | 1020.9 |
| 20260509043021 | 14 | 329 | 0.0 | 1.6 | 0.00 | 0.00 | 0.00 | 78 | 1021.0 |
| 20260509042520 | 14 | 329 | 0.0 | 1.6 | 0.00 | 0.00 | 0.00 | 77 | 1021.0 |
| 20260509042018 | 14 | 329 | 0.0 | 0.0 | 0.00 | 0.00 | 0.00 | 76 | 1020.9 |
| 20260509041510 | 15 | 329 | 0.0 | 1.6 | 0.00 | 0.00 | 0.00 | 75 | 1020.8 |
| 20260509041004 | 15 | 329 | 0.0 | 1.6 | 0.00 | 0.00 | 0.00 | 74 | 1020.7 |
| 20260509040719 | 15 | 329 | 1.6 | 3.2 | 0.00 | 0.00 | 0.00 | 73 | 1020.7 |
| 20260509040001 | 15 | 329 | 1.6 | 3.2 | 0.00 | 0.00 | 0.00 | 72 | 1020.6 |
| 20260509035500 | 15 | 329 | 1.6 | 4.8 | 0.00 | 0.00 | 0.00 | 71 | 1020.7 |
| 20260509034955 | 16 | 329 | 3.2 | 6.4 | 0.00 | 0.00 | 0.00 | 69 | 1020.6 |
| 20260509034456 | 16 | 331 | 3.2 | 6.4 | 0.00 | 0.00 | 0.00 | 69 | 1020.5 |
| 20260509033955 | 16 | 314 | 3.2 | 6.4 | 0.00 | 0.00 | 0.00 | 69 | 1020.4 |
| 20260509033458 | 16 | 341 | 3.2 | 6.4 | 0.00 | 0.00 | 0.00 | 67 | 1020.4 |
| 20260509033216 | 16 | 358 | 3.2 | 9.7 | 0.00 | 0.00 | 0.00 | 67 | 1020.2 |
| 20260509032453 | 17 | 349 | 3.2 | 9.7 | 0.00 | 0.00 | 0.00 | 66 | 1020.2 |
| 20260509031952 | 17 | 4 | 3.2 | 9.7 | 0.00 | 0.00 | 0.00 | 65 | 1020.1 |
| 20260509031707 | 17 | 346 | 4.8 | 9.7 | 0.00 | 0.00 | 0.00 | 65 | 1020.1 |
| 20260509031203 | 17 | 346 | 4.8 | 9.7 | 0.00 | 0.00 | 0.00 | 65 | 1020.1 |
| 20260509030706 | 17 | 358 | 4.8 | 9.7 | 0.00 | 0.00 | 0.00 | 65 | 1020.0 |
| 20260509025940 | 17 | 6 | 4.8 | 9.7 | 0.00 | 0.00 | 0.00 | 64 | 1020.0 |
| 20260509025702 | 17 | 348 | 4.8 | 9.7 | 0.00 | 0.00 | 0.00 | 64 | 1020.1 |
| 20260509024928 | 18 | 28 | 4.8 | 9.7 | 0.00 | 0.00 | 0.00 | 64 | 1020.0 |
| 20260509024423 | 18 | 43 | 4.8 | 9.7 | 0.00 | 0.00 | 0.00 | 63 | 1020.1 |
| 20260509023919 | 18 | 357 | 4.8 | 14.5 | 0.00 | 0.00 | 0.00 | 62 | 1020.1 |
| 20260509023420 | 18 | 32 | 6.4 | 14.5 | 0.00 | 0.00 | 0.00 | 62 | 1020.0 |
| 20260509022920 | 18 | 13 | 6.4 | 16.1 | 0.00 | 0.00 | 0.00 | 62 | 1020.0 |
| 20260509022421 | 18 | 18 | 6.4 | 16.1 | 0.00 | 0.00 | 0.00 | 62 | 1020.0 |
| 20260509021918 | 18 | 40 | 8.0 | 14.5 | 0.00 | 0.00 | 0.00 | 61 | 1020.0 |
| 20260509021414 | 19 | 17 | 8.0 | 16.1 | 0.00 | 0.00 | 0.00 | 60 | 1020.0 |
| 20260509020904 | 19 | 331 | 9.7 | 16.1 | 0.00 | 0.00 | 0.00 | 60 | 1019.9 |
| 20260509020406 | 19 | 27 | 8.0 | 16.1 | 0.00 | 0.00 | 0.00 | 59 | 1020.0 |
| 20260509020125 | 19 | 16 | 6.4 | 14.5 | 0.00 | 0.00 | 0.00 | 59 | 1019.9 |
| 20260509015406 | 19 | 58 | 6.4 | 14.5 | 0.00 | 0.00 | 0.00 | 58 | 1019.9 |
| 20260509014904 | 19 | 352 | 8.0 | 14.5 | 0.00 | 0.00 | 0.00 | 58 | 1019.9 |
| 20260509014403 | 19 | 42 | 9.7 | 16.1 | 0.00 | 0.00 | 0.00 | 58 | 1019.9 |
| 20260509014125 | 20 | 11 | 9.7 | 16.1 | 0.00 | 0.00 | 0.00 | 58 | 1019.9 |
| 20260509013401 | 20 | 0 | 8.0 | 17.7 | 0.00 | 0.00 | 0.00 | 56 | 1019.9 |
| 20260509013124 | 20 | 10 | 8.0 | 17.7 | 0.00 | 0.00 | 0.00 | 57 | 1019.9 |
| 20260509012358 | 20 | 44 | 8.0 | 16.1 | 0.00 | 0.00 | 0.00 | 57 | 1019.9 |
| 20260509011859 | 20 | 19 | 8.0 | 16.1 | 0.00 | 0.00 | 0.00 | 57 | 1020.0 |
| 20260509011357 | 20 | 58 | 9.7 | 17.7 | 0.00 | 0.00 | 0.00 | 56 | 1020.0 |
| 20260509010856 | 20 | 28 | 9.7 | 17.7 | 0.00 | 0.00 | 0.00 | 55 | 1020.0 |
| 20260509010357 | 20 | 30 | 9.7 | 19.3 | 0.00 | 0.00 | 0.00 | 55 | 1020.0 |
| 20260509005856 | 20 | 5 | 9.7 | 19.3 | 0.00 | 0.00 | 0.00 | 54 | 1020.2 |
| 20260509005354 | 20 | 29 | 8.0 | 14.5 | 0.00 | 0.00 | 0.00 | 55 | 1020.2 |
| 20260509004852 | 20 | 15 | 8.0 | 19.3 | 0.00 | 0.00 | 0.00 | 57 | 1020.1 |
| 20260509004352 | 20 | 17 | 9.7 | 19.3 | 0.00 | 0.00 | 0.00 | 55 | 1020.3 |
| 20260509003851 | 20 | 29 | 11.3 | 20.9 | 0.00 | 0.00 | 0.00 | 56 | 1020.3 |
| 20260509003350 | 21 | 27 | 9.7 | 20.9 | 0.00 | 0.00 | 0.00 | 54 | 1020.2 |
| 20260509002850 | 21 | 13 | 9.7 | 16.1 | 0.00 | 0.00 | 0.00 | 54 | 1020.2 |
| 20260509002349 | 21 | 0 | 9.7 | 16.1 | 0.00 | 0.00 | 0.00 | 53 | 1020.3 |
| 20260509001849 | 21 | 352 | 9.7 | 17.7 | 0.00 | 0.00 | 0.00 | 53 | 1020.2 |
| 20260509001348 | 21 | 25 | 9.7 | 17.7 | 0.00 | 0.00 | 0.00 | 51 | 1020.2 |
| 20260509000846 | 21 | 351 | 9.7 | 17.7 | 0.00 | 0.00 | 0.00 | 52 | 1020.2 |
| 20260509000344 | 21 | 352 | 9.7 | 17.7 | 0.00 | 0.00 | 0.00 | 52 | 1020.2 |
| 20260508235840 | 21 | 17 | 8.0 | 22.5 | 0.00 | 0.00 | 0.00 | 51 | 1020.1 |
| 20260508235341 | 21 | 316 | 8.0 | 22.5 | 0.00 | 0.00 | 0.00 | 50 | 1020.2 |
| 20260508235108 | 21 | 352 | 8.0 | 16.1 | 0.00 | 0.00 | 0.00 | 53 | 1020.1 |
| 20260508234557 | 21 | 19 | 9.7 | 16.1 | 0.00 | 0.00 | 0.00 | 51 | 1020.2 |
| 20260508234059 | 21 | 353 | 9.7 | 14.5 | 0.00 | 0.00 | 0.00 | 52 | 1020.3 |
| 20260508233337 | 22 | 39 | 9.7 | 14.5 | 0.00 | 0.00 | 0.00 | 50 | 1020.3 |
| 20260508232836 | 21 | 322 | 8.0 | 19.3 | 0.00 | 0.00 | 0.00 | 50 | 1020.3 |
| 20260508232334 | 21 | 346 | 8.0 | 19.3 | 0.00 | 0.00 | 0.00 | 53 | 1020.3 |
| 20260508232052 | 21 | 339 | 8.0 | 17.7 | 0.00 | 0.00 | 0.00 | 52 | 1020.3 |
| 20260508231332 | 21 | 343 | 8.0 | 17.7 | 0.00 | 0.00 | 0.00 | 50 | 1020.3 |
| 20260508230831 | 22 | 337 | 8.0 | 16.1 | 0.00 | 0.00 | 0.00 | 52 | 1020.5 |
| 20260508230328 | 22 | 13 | 4.8 | 14.5 | 0.00 | 0.00 | 0.00 | 49 | 1020.4 |
| 20260508225828 | 22 | 323 | 6.4 | 16.1 | 0.00 | 0.00 | 0.00 | 50 | 1020.3 |
| 20260508225324 | 22 | 15 | 8.0 | 16.1 | 0.00 | 0.00 | 0.00 | 49 | 1020.4 |
| 20260508225044 | 22 | 342 | 6.4 | 14.5 | 0.00 | 0.00 | 0.00 | 52 | 1020.4 |
| 20260508224319 | 22 | 347 | 4.8 | 14.5 | 0.00 | 0.00 | 0.00 | 48 | 1020.5 |
| 20260508223817 | 21 | 33 | 3.2 | 12.9 | 0.00 | 0.00 | 0.00 | 55 | 1020.5 |
| 20260508223316 | 21 | 294 | 4.8 | 12.9 | 0.00 | 0.00 | 0.00 | 52 | 1020.5 |
| 20260508223300 | 21 | 246 | 6.4 | 12.9 | 0.00 | 0.00 | 0.00 | 50 | 1020.6 |
| 20260508222314 | 21 | 289 | 4.8 | 14.5 | 0.00 | 0.00 | 0.00 | 51 | 1020.5 |
| 20260508221812 | 21 | 292 | 6.4 | 16.1 | 0.00 | 0.00 | 0.00 | 49 | 1020.6 |
| 20260508221312 | 21 | 334 | 6.4 | 16.1 | 0.00 | 0.00 | 0.00 | 50 | 1020.7 |
| 20260508220813 | 21 | 36 | 6.4 | 14.5 | 0.00 | 0.00 | 0.00 | 52 | 1020.8 |
| 20260508220311 | 21 | 285 | 4.8 | 14.5 | 0.00 | 0.00 | 0.00 | 53 | 1020.8 |
| 20260508215812 | 21 | 318 | 4.8 | 12.9 | 0.00 | 0.00 | 0.00 | 53 | 1020.9 |
| 20260508215309 | 21 | 238 | 4.8 | 12.9 | 0.00 | 0.00 | 0.00 | 52 | 1021.0 |
| 20260508214806 | 20 | 316 | 4.8 | 11.3 | 0.00 | 0.00 | 0.00 | 53 | 1021.1 |
| 20260508214307 | 21 | 290 | 6.4 | 14.5 | 0.00 | 0.00 | 0.00 | 54 | 1021.1 |
| 20260508213807 | 21 | 354 | 6.4 | 14.5 | 0.00 | 0.00 | 0.00 | 52 | 1021.0 |
| 20260508213306 | 21 | 282 | 4.8 | 11.3 | 0.00 | 0.00 | 0.00 | 52 | 1021.2 |
| 20260508212806 | 20 | 302 | 4.8 | 12.9 | 0.00 | 0.00 | 0.00 | 55 | 1021.2 |
| 20260508212306 | 20 | 344 | 6.4 | 14.5 | 0.00 | 0.00 | 0.00 | 54 | 1021.3 |
| 20260508211804 | 20 | 308 | 6.4 | 16.1 | 0.00 | 0.00 | 0.00 | 52 | 1021.4 |
| 20260508211304 | 20 | 291 | 6.4 | 16.1 | 0.00 | 0.00 | 0.00 | 56 | 1021.3 |
| 20260508210802 | 20 | 325 | 6.4 | 12.9 | 0.00 | 0.00 | 0.00 | 53 | 1021.4 |
| 20260508210301 | 20 | 234 | 6.4 | 12.9 | 0.00 | 0.00 | 0.00 | 51 | 1021.4 |
| 20260508205801 | 20 | 294 | 4.8 | 12.9 | 0.00 | 0.00 | 0.00 | 54 | 1021.3 |
| 20260508205306 | 19 | 332 | 4.8 | 9.7 | 0.00 | 0.00 | 0.00 | 60 | 1021.3 |
| 20260508204801 | 19 | 0 | 4.8 | 9.7 | 0.00 | 0.00 | 0.00 | 52 | 1021.4 |
| 20260508204301 | 20 | 300 | 6.4 | 14.5 | 0.00 | 0.00 | 0.00 | 52 | 1021.4 |
| 20260508203801 | 20 | 231 | 6.4 | 14.5 | 0.00 | 0.00 | 0.00 | 61 | 1021.4 |
| 20260508203301 | 19 | 275 | 8.0 | 16.1 | 0.00 | 0.00 | 0.00 | 54 | 1021.6 |
| 20260508202757 | 19 | 275 | 8.0 | 17.7 | 0.00 | 0.00 | 0.00 | 57 | 1021.5 |
| 20260508202256 | 19 | 293 | 8.0 | 17.7 | 0.00 | 0.00 | 0.00 | 57 | 1021.4 |
| 20260508201755 | 18 | 242 | 6.4 | 17.7 | 0.00 | 0.00 | 0.00 | 57 | 1021.5 |
| 20260508201254 | 18 | 44 | 4.8 | 17.7 | 0.00 | 0.00 | 0.00 | 59 | 1021.6 |
| 20260508201019 | 18 | 275 | 6.4 | 12.9 | 0.00 | 0.00 | 0.00 | 61 | 1021.6 |
| 20260508200253 | 18 | 2 | 6.4 | 16.1 | 0.00 | 0.00 | 0.00 | 58 | 1021.7 |
| 20260508195754 | 18 | 200 | 6.4 | 16.1 | 0.00 | 0.00 | 0.00 | 61 | 1021.8 |
| 20260508195258 | 18 | 54 | 6.4 | 14.5 | 0.00 | 0.00 | 0.00 | 64 | 1021.8 |
| 20260508194751 | 18 | 296 | 4.8 | 12.9 | 0.00 | 0.00 | 0.00 | 61 | 1021.7 |
| 20260508194510 | 17 | 279 | 4.8 | 9.7 | 0.00 | 0.00 | 0.00 | 60 | 1021.7 |
| 20260508193749 | 17 | 10 | 4.8 | 12.9 | 0.00 | 0.00 | 0.00 | 62 | 1021.8 |
| 20260508193247 | 18 | 275 | 6.4 | 12.9 | 0.00 | 0.00 | 0.00 | 58 | 1021.8 |
| 20260508192748 | 18 | 339 | 6.4 | 14.5 | 0.00 | 0.00 | 0.00 | 61 | 1022.0 |
| 20260508192248 | 18 | 231 | 6.4 | 14.5 | 0.00 | 0.00 | 0.00 | 65 | 1021.7 |
| 20260508191747 | 17 | 39 | 6.4 | 16.1 | 0.00 | 0.00 | 0.00 | 60 | 1021.9 |
| 20260508191245 | 17 | 241 | 6.4 | 17.7 | 0.00 | 0.00 | 0.00 | 59 | 1021.9 |
| 20260508190749 | 17 | 17 | 4.8 | 17.7 | 0.00 | 0.00 | 0.00 | 63 | 1021.9 |
| 20260508190244 | 17 | 319 | 6.4 | 12.9 | 0.00 | 0.00 | 0.00 | 60 | 1021.9 |
| 20260508185743 | 17 | 356 | 8.0 | 14.5 | 0.00 | 0.00 | 0.00 | 59 | 1021.9 |
| 20260508185244 | 16 | 260 | 6.4 | 14.5 | 0.00 | 0.00 | 0.00 | 60 | 1021.8 |
| 20260508184744 | 16 | 265 | 6.4 | 17.7 | 0.00 | 0.00 | 0.00 | 60 | 1021.7 |
| 20260508184242 | 16 | 239 | 8.0 | 17.7 | 0.00 | 0.00 | 0.00 | 62 | 1021.8 |
| 20260508183731 | 16 | 235 | 6.4 | 17.7 | 0.00 | 0.00 | 0.00 | 63 | 1021.8 |
| 20260508183229 | 15 | 280 | 4.8 | 12.9 | 0.00 | 0.00 | 0.00 | 61 | 1021.9 |
| 20260508182727 | 16 | 275 | 6.4 | 16.1 | 0.00 | 0.00 | 0.00 | 66 | 1021.9 |
| 20260508182226 | 16 | 254 | 6.4 | 16.1 | 0.00 | 0.00 | 0.00 | 62 | 1022.0 |
| 20260508181718 | 15 | 279 | 8.0 | 17.7 | 0.00 | 0.00 | 0.00 | 65 | 1022.0 |
| 20260508181218 | 15 | 292 | 9.7 | 17.7 | 0.00 | 0.00 | 0.00 | 61 | 1022.1 |
| 20260508180717 | 15 | 295 | 8.0 | 19.3 | 0.00 | 0.00 | 0.00 | 68 | 1022.0 |
| 20260508180218 | 16 | 295 | 6.4 | 19.3 | 0.00 | 0.00 | 0.00 | 61 | 1022.1 |
| 20260508175717 | 15 | 259 | 6.4 | 16.1 | 0.00 | 0.00 | 0.00 | 68 | 1022.0 |
| 20260508175436 | 14 | 333 | 8.0 | 16.1 | 0.00 | 0.00 | 0.00 | 66 | 1022.0 |
| 20260508174715 | 14 | 270 | 8.0 | 17.7 | 0.00 | 0.00 | 0.00 | 67 | 1022.0 |
| 20260508174218 | 14 | 319 | 8.0 | 17.7 | 0.00 | 0.00 | 0.00 | 69 | 1022.0 |
| 20260508173931 | 13 | 292 | 8.0 | 17.7 | 0.00 | 0.00 | 0.00 | 69 | 1021.9 |
| 20260508173213 | 13 | 283 | 6.4 | 17.7 | 0.00 | 0.00 | 0.00 | 68 | 1021.9 |
| 20260508172711 | 14 | 254 | 6.4 | 12.9 | 0.00 | 0.00 | 0.00 | 71 | 1021.8 |
| 20260508172211 | 12 | 132 | 8.0 | 14.5 | 0.00 | 0.00 | 0.00 | 71 | 1021.8 |
| 20260508171712 | 12 | 255 | 9.7 | 17.7 | 0.00 | 0.00 | 0.00 | 68 | 1021.8 |
| 20260508171212 | 13 | 243 | 6.4 | 17.7 | 0.00 | 0.00 | 0.00 | 68 | 1021.8 |
| 20260508170711 | 13 | 233 | 4.8 | 16.1 | 0.00 | 0.00 | 0.00 | 70 | 1021.6 |
| 20260508170212 | 13 | 203 | 4.8 | 16.1 | 0.00 | 0.00 | 0.00 | 72 | 1021.6 |
| 20260508165712 | 12 | 265 | 4.8 | 9.7 | 0.00 | 0.00 | 0.00 | 75 | 1021.6 |
| 20260508165437 | 11 | 238 | 4.8 | 16.1 | 0.00 | 0.00 | 0.00 | 74 | 1021.6 |
| 20260508164710 | 11 | 164 | 6.4 | 16.1 | 0.00 | 0.00 | 0.00 | 74 | 1021.7 |
| 20260508164208 | 11 | 208 | 4.8 | 11.3 | 0.00 | 0.00 | 0.00 | 74 | 1021.6 |
| 20260508163710 | 11 | 181 | 6.4 | 11.3 | 0.00 | 0.00 | 0.00 | 75 | 1021.5 |
| 20260508163208 | 11 | 232 | 4.8 | 9.7 | 0.00 | 0.00 | 0.00 | 76 | 1021.5 |
| 20260508162935 | 11 | 229 | 4.8 | 9.7 | 0.00 | 0.00 | 0.00 | 77 | 1021.6 |
| 20260508162210 | 11 | 198 | 6.4 | 16.1 | 0.00 | 0.00 | 0.00 | 75 | 1021.3 |
| 20260508161703 | 11 | 171 | 6.4 | 16.1 | 0.00 | 0.00 | 0.00 | 75 | 1021.3 |
| 20260508161431 | 11 | 162 | 4.8 | 14.5 | 0.00 | 0.00 | 0.00 | 77 | 1021.3 |
| 20260508160704 | 11 | 204 | 4.8 | 9.7 | 0.00 | 0.00 | 0.00 | 75 | 1021.2 |
| 20260508160203 | 11 | 165 | 4.8 | 11.3 | 0.00 | 0.00 | 0.00 | 76 | 1021.3 |
| 20260508155927 | 11 | 163 | 6.4 | 11.3 | 0.00 | 0.00 | 0.00 | 76 | 1021.1 |
| 20260508155414 | 11 | 187 | 6.4 | 11.3 | 0.00 | 0.00 | 0.00 | 77 | 1021.3 |
| 20260508154701 | 11 | 175 | 6.4 | 12.9 | 0.00 | 0.00 | 0.00 | 75 | 1021.3 |
| 20260508154159 | 11 | 189 | 8.0 | 14.5 | 0.00 | 0.00 | 0.00 | 76 | 1021.4 |
| 20260508153650 | 11 | 235 | 8.0 | 14.5 | 0.00 | 0.00 | 0.00 | 76 | 1021.4 |
| 20260508153151 | 11 | 167 | 6.4 | 14.5 | 0.00 | 0.00 | 0.00 | 76 | 1021.0 |
| 20260508152649 | 10 | 136 | 6.4 | 12.9 | 0.00 | 0.00 | 0.00 | 75 | 1021.1 |
| 20260508152404 | 11 | 130 | 6.4 | 12.9 | 0.00 | 0.00 | 0.00 | 77 | 1021.2 |
| 20260508151645 | 10 | 104 | 6.4 | 12.9 | 0.00 | 0.00 | 0.00 | 76 | 1021.3 |
| 20260508151355 | 10 | 172 | 6.4 | 16.1 | 0.00 | 0.00 | 0.00 | 78 | 1021.4 |
| 20260508150621 | 10 | 160 | 6.4 | 16.1 | 0.00 | 0.00 | 0.00 | 76 | 1021.4 |
| 20260508150058 | 10 | 129 | 4.8 | 9.7 | 0.00 | 0.00 | 0.00 | 78 | 1021.4 |
| 20260508145550 | 10 | 166 | 6.4 | 9.7 | 0.00 | 0.00 | 0.00 | 78 | 1021.3 |
| 20260508145048 | 10 | 148 | 4.8 | 8.0 | 0.00 | 0.00 | 0.00 | 79 | 1021.2 |
| 20260508144550 | 10 | 131 | 4.8 | 9.7 | 0.00 | 0.00 | 0.00 | 80 | 1021.4 |
| 20260508144046 | 10 | 172 | 6.4 | 11.3 | 0.00 | 0.00 | 0.00 | 79 | 1021.4 |
| 20260508143544 | 10 | 147 | 4.8 | 11.3 | 0.00 | 0.00 | 0.00 | 80 | 1021.2 |
| 20260508143045 | 10 | 160 | 4.8 | 8.0 | 0.00 | 0.00 | 0.00 | 81 | 1021.4 |
| 20260508142544 | 10 | 156 | 4.8 | 9.7 | 0.00 | 0.00 | 0.00 | 80 | 1021.3 |
| 20260508142042 | 10 | 150 | 4.8 | 9.7 | 0.00 | 0.00 | 0.00 | 81 | 1021.3 |